Decatur, IL

10:59 PM CDT on August 19, 2017 (GMT -0500)
Decatur

Weather History for KDEC - October, 2012

Change the Weather History Date:

Sunday, October 14, 2012

  Actual Average Record
Temperature  
Mean Temperature 63 °F 55 °F  
Max Temperature 74 °F 67 °F 84 °F (1996)
Min Temperature 51 °F 43 °F 25 °F (2002)
Degree Days  
Heating Degree Days 2 11  
Month to date heating degree days 165 123  
Since 1 July heating degree days 245 196  
Cooling Degree Days 0 0  
Month to date cooling degree days 1 14  
Year to date cooling degree days 1422 1043  
Growing Degree Days 12 (Base 50)    
Moisture  
Dew Point 59 °F    
Average Humidity 77    
Maximum Humidity 93    
Minimum Humidity 61    
Precipitation  
Precipitation 0.37 in 0.09 in 0.84 in (2003)
Month to date precipitation 1.56 1.37  
Year to date precipitation 20.68 30.57  
Sea Level Pressure  
Sea Level Pressure 29.72 in    
Wind  
Wind Speed 18 mph (SW)    
Max Wind Speed 37 mph    
Max Gust Speed 51 mph    
Visibility 10 miles    
Events Rain    
T = Trace of Precipitation, MM = Missing Value Source: NWS Daily Summary

Daily Weather History Graph

Daily Weather History Graph

Search for Another Location

Airport or City:

Trip Planner

Search our weather history database for the weather conditions in past years. The results will help you decide how hot, cold, wet, or windy it might be!

Date:

Astronomy

Oct. 14, 2012 Rise Set
Actual Time 7:05 AM CDT 6:16 PM CDT
Civil Twilight 6:38 AM CDT 6:43 PM CDT
Nautical Twilight 6:06 AM CDT 7:15 PM CDT
Astronomical Twilight 5:35 AM CDT 7:46 PM CDT
Moon 6:04 AM CDT (10/14) 5:36 PM CDT (10/14)
Length of Visible Light 12h 05m
Length of Day
11h 11m
Waning Crescent, 1% of the Moon is Illuminated
Oct 14
Waning Crescent
Oct 15
New
Oct 21
First Quarter
Oct 29
Full
Nov 6
Last Quarter

Hourly Weather History & Observations

Time (CDT) Temp. Dew Point Humidity Pressure Visibility Wind Dir Wind Speed Gust Speed Precip Events Conditions
12:13 AM 66.2 °F 62.6 °F 88% 29.82 in 10.0 mi SSE 11.5 mph - 0.00 in   Overcast
12:54 AM 68.0 °F 63.0 °F 84% 29.79 in 10.0 mi South 15.0 mph 21.9 mph 0.00 in   Overcast
1:54 AM 68.0 °F 62.1 °F 81% 29.77 in 10.0 mi South 17.3 mph - N/A   Overcast
2:54 AM 64.9 °F 63.0 °F 93% 29.76 in 6.0 mi South 12.7 mph - 0.04 in Rain Light Rain
3:54 AM 64.9 °F 63.0 °F 93% 29.73 in 8.0 mi South 13.8 mph 23.0 mph 0.05 in Rain Light Rain
4:40 AM 64.4 °F 64.4 °F 100% 29.74 in 10.0 mi SSW 20.7 mph 31.1 mph 0.01 in   Overcast
4:54 AM 64.9 °F 63.0 °F 93% 29.73 in 10.0 mi SSW 20.7 mph 27.6 mph 0.01 in Rain Light Rain
5:35 AM 64.4 °F 62.6 °F 94% 29.71 in 10.0 mi South 18.4 mph 25.3 mph 0.00 in   Overcast
5:54 AM 64.9 °F 63.0 °F 93% 29.67 in 10.0 mi South 19.6 mph 26.5 mph 0.00 in   Mostly Cloudy
6:54 AM 64.0 °F 62.1 °F 93% 29.66 in 10.0 mi South 19.6 mph 25.3 mph 0.00 in Rain Light Rain
7:54 AM 64.0 °F 62.1 °F 93% 29.65 in 10.0 mi South 13.8 mph 25.3 mph 0.00 in   Clear
8:24 AM 64.4 °F 62.6 °F 94% 29.67 in 10.0 mi South 15.0 mph - N/A   Overcast
8:46 AM 66.2 °F 62.6 °F 88% 29.67 in 10.0 mi SSW 19.6 mph 29.9 mph N/A   Overcast
8:54 AM 66.0 °F 63.0 °F 90% 29.66 in 10.0 mi South 21.9 mph 34.5 mph N/A   Overcast
9:17 AM 66.2 °F 62.6 °F 88% 29.67 in 10.0 mi SSW 24.2 mph 32.2 mph N/A   Overcast
9:54 AM 66.9 °F 63.0 °F 87% 29.65 in 10.0 mi SSW 26.5 mph 36.8 mph 0.00 in   Overcast
10:04 AM 66.2 °F 62.6 °F 88% 29.66 in 10.0 mi SSW 21.9 mph 31.1 mph N/A   Mostly Cloudy
10:15 AM 66.2 °F 62.6 °F 88% 29.66 in 10.0 mi SSW 25.3 mph 40.3 mph N/A   Mostly Cloudy
10:54 AM 66.9 °F 62.1 °F 84% 29.65 in 10.0 mi SSW 24.2 mph 36.8 mph N/A   Overcast
11:28 AM 69.8 °F 62.6 °F 78% 29.66 in 10.0 mi SSW 21.9 mph 33.4 mph N/A   Overcast
11:54 AM 70.0 °F 62.1 °F 76% 29.64 in 10.0 mi SW 26.5 mph 36.8 mph N/A   Overcast
12:54 PM 71.1 °F 60.1 °F 68% 29.61 in 10.0 mi SW 27.6 mph 38.0 mph N/A   Overcast
1:54 PM 73.9 °F 59.0 °F 59% 29.59 in 10.0 mi SW 31.1 mph 42.6 mph N/A   Mostly Cloudy
2:54 PM 72.0 °F 59.0 °F 64% 29.60 in 10.0 mi WSW 19.6 mph 33.4 mph N/A   Mostly Cloudy
3:54 PM 63.0 °F 61.0 °F 93% 29.66 in 3.0 mi WSW 16.1 mph - 0.16 in Rain Heavy Rain
4:54 PM 62.1 °F 57.0 °F 84% 29.69 in 10.0 mi WNW 15.0 mph 28.8 mph 0.11 in   Partly Cloudy
5:14 PM 60.8 °F 57.2 °F 88% 29.72 in 10.0 mi West 17.3 mph 26.5 mph N/A   Mostly Cloudy
5:54 PM 57.9 °F 53.1 °F 84% 29.75 in 10.0 mi WNW 19.6 mph 34.5 mph N/A   Overcast
6:54 PM 55.9 °F 52.0 °F 87% 29.80 in 10.0 mi WNW 24.2 mph 32.2 mph N/A   Overcast
7:54 PM 55.0 °F 50.0 °F 83% 29.83 in 10.0 mi WNW 18.4 mph 27.6 mph N/A   Overcast
8:47 PM 53.6 °F 48.2 °F 82% 29.85 in 10.0 mi WNW 13.8 mph 23.0 mph N/A   Overcast
8:54 PM 54.0 °F 48.0 °F 80% 29.86 in 10.0 mi WNW 10.4 mph 23.0 mph N/A   Overcast
9:54 PM 53.1 °F 48.0 °F 83% 29.87 in 10.0 mi West 9.2 mph - N/A   Partly Cloudy
10:54 PM 52.0 °F 48.0 °F 86% 29.88 in 10.0 mi West 8.1 mph - N/A   Clear
11:54 PM 52.0 °F 46.0 °F 80% 29.89 in 10.0 mi West 6.9 mph - N/A   Clear